Weather History for Marion, IN

Change the Weather History Date:

Monday, May 13, 2013

  Actual Average (KMIE) Record (KMIE)
Temperature  
Mean Temperature 48 °F 61 °F  
Max Temperature 61 °F 71 °F 86 °F (1982)
Min Temperature 36 °F 51 °F 37 °F (2001)
Degree Days  
Heating Degree Days 16 6  
Month to date heating degree days 95  
Since 1 July heating degree days 5687  
Cooling Degree Days 0 2  
Month to date cooling degree days 16  
Year to date cooling degree days 31  
Moisture  
Dew Point 28 °F    
Average Humidity 50    
Maximum Humidity 83    
Minimum Humidity 20    
Precipitation  
Precipitation 0.00 in 0.14 in 0.94 in (1978)
Month to date precipitation 1.67  
Year to date precipitation 12.83  
Sea Level Pressure  
Sea Level Pressure 30.14 in    
Wind  
Wind Speed 4 mph (NW)    
Max Wind Speed 15 mph    
Max Gust Speed 23 mph    
Visibility 9 miles    
Events      
T = Trace of Precipitation, MM = Missing Value Source: NWS Daily Summary

Daily Weather History Graph

Daily Weather History Graph

Search for Another Location

Airport:

Trip Planner

Search our weather history database for the weather conditions in past years. The results will help you decide how hot, cold, wet, or windy it might be!

Date:

Astronomy

May. 13, 2013 Rise Set
Actual Time 6:27 AM EDT 8:50 PM EDT
Civil Twilight 5:57 AM EDT 9:21 PM EDT
Nautical Twilight 5:19 AM EDT 9:59 PM EDT
Astronomical Twilight 4:37 AM EDT 10:42 PM EDT
Moon 9:13 AM EDT (5/13) 11:59 PM EDT (5/13)
Length of Visible Light 15h 24m
Length of Day
14h 22m
Waxing Crescent, 12% of the Moon is Illuminated
May 13
Waxing Crescent
May 18
First Quarter
May 25
Full
May 31
Last Quarter
Jun 8
New

Hourly Weather History & Observations

Time (EDT) Temp. Windchill Dew Point Humidity Pressure Visibility Wind Dir Wind Speed Gust Speed Precip Events Conditions
12:15 AM 41.5 °F 39.6 °F 30.4 °F 65% 30.13 in 7.0 mi NE 3.5 mph - N/A   Scattered Clouds
12:35 AM 41.0 °F 39.0 °F 30.4 °F 66% 30.13 in 7.0 mi East 3.5 mph - N/A   Scattered Clouds
12:55 AM 40.5 °F - 30.2 °F 67% 30.13 in 10.0 mi Calm Calm - N/A   Scattered Clouds
1:15 AM 38.8 °F 36.5 °F 31.1 °F 74% 30.13 in 5.0 mi SE 3.5 mph - N/A   Unknown
1:35 AM 38.7 °F - 31.8 °F 76% 30.13 in 10.0 mi Calm Calm - N/A   Unknown
1:55 AM 39.2 °F - 32.2 °F 76% 30.12 in 10.0 mi Calm Calm - N/A   Overcast
2:15 AM 39.2 °F - 32.4 °F 76% 30.12 in 10.0 mi Calm Calm - N/A   Overcast
2:35 AM 39.7 °F - 32.0 °F 74% 30.12 in 10.0 mi Calm Calm - N/A   Overcast
2:55 AM 40.1 °F - 32.0 °F 73% 30.11 in 10.0 mi Calm Calm - N/A   Overcast
3:15 AM 40.1 °F - 32.2 °F 73% 30.11 in 10.0 mi Calm Calm - N/A   Overcast
3:35 AM 40.1 °F 38.0 °F 32.5 °F 74% 30.11 in 10.0 mi South 3.5 mph - N/A   Overcast
3:55 AM 39.7 °F 36.5 °F 32.7 °F 76% 30.11 in 7.0 mi South 4.6 mph - N/A   Overcast
4:15 AM 40.1 °F 38.0 °F 32.0 °F 73% 30.11 in 7.0 mi SSW 3.5 mph - N/A   Overcast
4:35 AM 39.7 °F 37.6 °F 32.0 °F 74% 30.11 in 5.0 mi SSW 3.5 mph - N/A   Haze
4:55 AM 39.6 °F 37.4 °F 32.0 °F 74% 30.11 in 5.0 mi SSW 3.5 mph - N/A   Haze
5:15 AM 38.1 °F 33.7 °F 32.0 °F 79% 30.11 in 10.0 mi SSW 5.8 mph - N/A   Scattered Clouds
5:35 AM 37.8 °F 32.5 °F 31.5 °F 78% 30.11 in 7.0 mi SSW 6.9 mph - N/A   Clear
5:55 AM 37.0 °F 34.5 °F 31.5 °F 80% 30.11 in 10.0 mi North 3.5 mph - N/A   Clear
6:15 AM 37.4 °F 32.1 °F 31.3 °F 79% 30.12 in 5.0 mi NE 6.9 mph - N/A   Haze
6:35 AM 37.4 °F 33.8 °F 30.7 °F 77% 30.13 in 5.0 mi ENE 4.6 mph - N/A   Haze
6:55 AM 36.1 °F 32.3 °F 30.7 °F 81% 30.13 in 10.0 mi ENE 4.6 mph - N/A   Clear
7:15 AM 36.1 °F 32.3 °F 31.3 °F 83% 30.14 in 7.0 mi ENE 4.6 mph - N/A   Scattered Clouds
7:35 AM 37.8 °F - 32.0 °F 80% 30.14 in 5.0 mi Calm Calm - N/A   Haze
7:55 AM 39.4 °F - 32.0 °F 75% 30.15 in 10.0 mi Calm Calm - N/A   Clear
8:15 AM 41.4 °F 39.4 °F 32.2 °F 70% 30.15 in 10.0 mi East 3.5 mph - N/A   Clear
8:35 AM 43.0 °F - 32.2 °F 66% 30.16 in 10.0 mi Calm Calm - N/A   Clear
8:55 AM 44.4 °F - 31.5 °F 60% 30.16 in 10.0 mi Calm Calm - N/A   Clear
9:15 AM 45.3 °F - 30.9 °F 57% 30.17 in 10.0 mi Calm Calm - N/A   Clear
9:35 AM 46.4 °F - 31.3 °F 56% 30.18 in 10.0 mi Calm Calm - N/A   Clear
9:55 AM 47.1 °F - 30.9 °F 53% 30.18 in 7.0 mi Calm Calm - N/A   Clear
10:15 AM 47.8 °F - 30.9 °F 52% 30.18 in 7.0 mi WNW 4.6 mph - N/A   Clear
10:35 AM 48.7 °F - 30.2 °F 49% 30.19 in 10.0 mi WNW 3.5 mph - N/A   Clear
10:55 AM 49.8 °F - 30.0 °F 47% 30.19 in 10.0 mi NW 5.8 mph - N/A   Clear
11:15 AM 51.1 °F - 28.2 °F 41% 30.19 in 10.0 mi NW 5.8 mph - N/A   Clear
11:35 AM 52.2 °F - 26.6 °F 37% 30.19 in 10.0 mi NW 5.8 mph - N/A   Clear
11:55 AM 53.6 °F - 22.5 °F 30% 30.19 in 10.0 mi NNW 6.9 mph - N/A   Clear
12:15 PM 54.1 °F - 21.0 °F 27% 30.19 in 10.0 mi NW 12.7 mph 20.7 mph N/A   Scattered Clouds
12:35 PM 54.7 °F - 22.3 °F 28% 30.19 in 10.0 mi NW 11.5 mph 20.7 mph N/A   Clear
12:55 PM 55.0 °F - 21.2 °F 27% 30.18 in 10.0 mi West 13.8 mph 19.6 mph N/A   Scattered Clouds
1:15 PM 55.8 °F - 20.7 °F 26% 30.18 in 10.0 mi NW 10.4 mph - N/A   Clear
1:35 PM 56.1 °F - 21.9 °F 27% 30.18 in 10.0 mi NW 11.5 mph 18.4 mph N/A   Scattered Clouds
1:55 PM 56.1 °F - 20.7 °F 25% 30.17 in 10.0 mi West 10.4 mph 16.1 mph N/A   Scattered Clouds
2:15 PM 56.8 °F - 20.7 °F 25% 30.17 in 10.0 mi NNW 9.2 mph 19.6 mph N/A   Scattered Clouds
2:35 PM 57.4 °F - 21.0 °F 24% 30.17 in 10.0 mi NW 6.9 mph 23.0 mph N/A   Scattered Clouds
2:55 PM 57.9 °F - 21.2 °F 24% 30.16 in 10.0 mi NW 13.8 mph 19.6 mph N/A   Clear
3:15 PM 58.3 °F - 20.5 °F 23% 30.16 in 10.0 mi NNW 12.7 mph 21.9 mph N/A   Clear
3:35 PM 58.3 °F - 20.7 °F 23% 30.16 in 10.0 mi NW 6.9 mph - N/A   Clear
4:35 PM 59.7 °F - 20.8 °F 22% 30.14 in 10.0 mi NW 10.4 mph 18.4 mph N/A   Clear
4:55 PM 60.1 °F - 20.8 °F 22% 30.13 in 10.0 mi NW 8.1 mph - N/A   Clear
5:15 PM 60.1 °F - 18.7 °F 20% 30.12 in 10.0 mi NW 15.0 mph 20.7 mph N/A   Clear
5:35 PM 60.6 °F - 19.8 °F 21% 30.12 in 10.0 mi NW 10.4 mph 18.4 mph N/A   Clear
5:55 PM 60.8 °F - 20.8 °F 21% 30.12 in 10.0 mi WNW 13.8 mph 17.3 mph N/A   Clear
6:15 PM 61.2 °F - 20.3 °F 21% 30.11 in 10.0 mi NW 13.8 mph 18.4 mph N/A   Clear
6:35 PM 61.0 °F - 20.7 °F 21% 30.11 in 10.0 mi NNW 8.1 mph 19.6 mph N/A   Clear
6:55 PM 60.8 °F - 19.6 °F 20% 30.11 in 10.0 mi NW 6.9 mph - N/A   Clear
7:35 PM 60.1 °F - 20.8 °F 22% 30.11 in 10.0 mi West 6.9 mph - N/A   Clear
8:15 PM 59.2 °F - 21.9 °F 24% 30.11 in 7.0 mi North 3.5 mph - N/A   Clear
8:35 PM 58.5 °F - 21.7 °F 24% 30.11 in 7.0 mi Calm Calm - N/A   Clear
8:55 PM 57.0 °F - 25.5 °F 30% 30.12 in 10.0 mi Calm Calm - N/A   Clear
9:15 PM 54.7 °F - 28.6 °F 37% 30.12 in 10.0 mi Calm Calm - N/A   Clear
9:35 PM 51.3 °F - 32.0 °F 48% 30.12 in 10.0 mi ENE 3.5 mph - N/A   Clear
9:55 PM 49.1 °F - 32.7 °F 53% 30.12 in 10.0 mi Calm Calm - N/A   Clear
10:15 PM 48.4 °F - 32.4 °F 54% 30.12 in 7.0 mi ESE 4.6 mph - N/A   Clear
10:35 PM 46.9 °F - 33.4 °F 59% 30.13 in 10.0 mi SE 3.5 mph - N/A   Clear
10:55 PM 48.0 °F - 32.4 °F 55% 30.13 in 10.0 mi ESE 5.8 mph - N/A   Clear
11:15 PM 48.4 °F - 32.5 °F 54% 30.12 in 10.0 mi SE 5.8 mph - N/A   Clear
11:35 PM 49.1 °F - 32.0 °F 52% 30.12 in 7.0 mi SE 6.9 mph - N/A   Clear
11:55 PM 49.1 °F - 31.6 °F 51% 30.11 in 10.0 mi ESE 5.8 mph - N/A   Mostly Cloudy